Tracking 35035 objects as of 16-Aug-2026
HD Live streaming from Space Station
objects crossing your sky now

IGS O-8

Track IGS O-8 now!
10-day predictions
IGS O-8 is classified as:


NORAD ID: 58762
Int'l Code: 2024-010A
Launch date: January 12, 2024
Source: Japan (JPN)
Launch site: TANEGASHIMA SPACE CENTER (TNSTA)
Your satellite tracking list
Your tracking list is empty




NASA's NSSDC Master Catalog

Two Line Element Set (TLE):
1 58762U 24010A   26225.02905224 0.00000000  00000-0  00000-0 0    09
2 58762  97.3453 346.1533 0000980 330.0712  29.9286 15.27638576    05
Source of the keplerian elements: MCCANTS